カタログに戻る

STARLINK-31601

運用中通信VLEO
NORAD 59209·PAYLOAD·🇺🇸 United States

打ち上げ Mar 11, 2024 から Vandenberg Space Force Base

Loading…

次のパス (今後24時間)

TLE

最新Source: CelesTrak SupGP

元期: Sep 15, 2026, 02:02 UTC

1 59209C 24046J   26258.08520833  .00065737  00000+0  19427-2 0  2583
2 59209  53.1591 351.0538 0001212  90.0369 181.7126 15.34350600    13

AllMySatでSTARLINK-31601をリアルタイム追跡

Download on the App Store